This is the latest recevied weather packets stored in our database for station/object SV9TNF-55. If no packets are shown the sender has not sent any weather packets the latest 10 day(s).
| Time | Temp. | Humidity | Pressure | Rain* | Wind** | Luminosity | Snow |
|---|---|---|---|---|---|---|---|
| 1788637064 | 19.44° C | 46% | 1019.9 hPa | 0 mm | 2.24 m/s, 292° | - | - |
| 1788636463 | 19.44° C | 48% | 1020 hPa | 0 mm | 2.24 m/s, 292° | - | - |
| 1788635863 | 19.44° C | 49% | 1019.9 hPa | 0 mm | 2.24 m/s, 292° | - | - |
| 1788635264 | 18.89° C | 51% | 1019.9 hPa | 0 mm | 1.79 m/s, 292° | - | - |
| 1788634664 | 19.44° C | 50% | 1019.9 hPa | 0 mm | 1.79 m/s, 292° | - | - |
| 1788634063 | 19.44° C | 49% | 1019.7 hPa | 0 mm | 1.79 m/s, 292° | - | - |
| 1788633463 | 19.44° C | 48% | 1019.7 hPa | 0 mm | 2.24 m/s, 292° | - | - |
| 1788632863 | 18.89° C | 48% | 1019.6 hPa | 0 mm | 1.79 m/s, 270° | - | - |
| 1788632263 | 19.44° C | 46% | 1019.3 hPa | 0 mm | 1.79 m/s, 292° | - | - |
| 1788631663 | 19.44° C | 46% | 1019.3 hPa | 0 mm | 2.24 m/s, 292° | - | - |
| 1788631063 | 19.44° C | 43% | 1019.3 hPa | 0 mm | 2.24 m/s, 292° | - | - |
| 1788630464 | 19.44° C | 43% | 1019.3 hPa | 0 mm | 4.02 m/s, 292° | - | - |
| 1788629863 | 18.89° C | 44% | 1019.3 hPa | 0 mm | 3.13 m/s, 292° | - | - |
| 1788629263 | 18.89° C | 44% | 1019.3 hPa | 0 mm | 3.58 m/s, 292° | - | - |
| 1788628663 | 18.89° C | 44% | 1019.2 hPa | 0 mm | 3.13 m/s, 292° | - | - |
| 1788628062 | 18.89° C | 43% | 1019 hPa | 0 mm | 2.68 m/s, 292° | - | - |
| 1788627463 | 18.33° C | 46% | 1019 hPa | 0 mm | 2.24 m/s, 315° | - | - |
| 1788626864 | 18.33° C | 51% | 1018.9 hPa | 0 mm | 1.79 m/s, 292° | - | - |
| 1788626263 | 17.78° C | 63% | 1018.9 hPa | 0 mm | 2.24 m/s, 315° | - | - |
| 1788625662 | 17.78° C | 63% | 1018.9 hPa | 0 mm | 2.24 m/s, 315° | - | - |
| 1788625063 | 17.78° C | 63% | 1018.9 hPa | 0 mm | 2.24 m/s, 315° | - | - |
| 1788624462 | 18.33° C | 64% | 1018.7 hPa | 0 mm | 2.24 m/s, 337° | - | - |
| 1788623863 | 18.33° C | 66% | 1018.6 hPa | 0 mm | 2.68 m/s, 315° | - | - |
| 1788623262 | 18.33° C | 66% | 1018.6 hPa | 0 mm | 2.68 m/s, 315° | - | - |
| 1788622662 | 18.33° C | 66% | 1018.5 hPa | 0 mm | 2.68 m/s, 337° | - | - |
* Rain latest hour (hover to see other rain measurements)
** Current wind speed in m/s (hover to see current wind gust speed)